This demonstration page uses our WeatherBlox Daily Observations layout. Learn more.

Left ArrowRight Arrow

39.01783, -85.05884

Hourly Observations for March 22, 2018

Temp ( °F °C ) Dew Point ( °F °C ) Humidity (%) Winds ( mph kmh ) Pressure ( in mb ) Visibility ( mi km ) Precip ( " mm )
12:52 am 00:52 Mostly Clear 26 -3.3 26 -3.3 100 100 N N/A 30.17 1022 10 16 N/A
1:52 am 01:52 Clear 27 -2.8 26 -3.3 96 96 WNW 7 11 30.18 1022 9 14 N/A
2:52 am 02:52 Clear 25 -3.9 23 -5 92 92 WNW 6 9 30.19 1022 10 16 N/A
3:52 am 03:52 Clear 24 -4.4 21 -6.1 88 88 WNW 7 11 30.19 1022 10 16 N/A
4:52 am 04:52 Clear 23 -5 20 -6.7 88 88 W 5 7 30.21 1023 10 16 N/A
5:52 am 05:52 Clear 27 -2.8 22 -5.6 81 81 WNW 12 19 30.22 1023 10 16 N/A
6:52 am 06:52 Clear 25 -3.9 21 -6.1 85 85 WNW 9 15 30.23 1024 10 16 N/A
7:52 am 07:52 Sunny 22 -5.6 19 -7.2 89 89 VRB 5 7 30.25 1024 10 16 N/A
8:52 am 08:52 Sunny 26 -3.3 22 -5.6 84 84 N N/A 30.27 1025 10 16 N/A
9:52 am 09:52 Sunny 29 -1.7 23 -5 78 78 NW 10 17 30.29 1026 10 16 N/A
10:52 am 10:52 Sunny 32 undefined 25 -3.9 75 75 NW 8 13 30.30 1026 10 16 N/A
11:52 am 11:52 Mostly Sunny 35 1.7 25 -3.9 67 67 NW 9 15 30.32 1027 10 16 N/A
12:52 pm 12:52 Mostly Sunny 37 2.8 24 -4.4 59 59 WNW 10 17 30.32 1027 10 16 N/A
1:52 pm 13:52 Mostly Sunny 39 3.9 27 -2.8 62 62 WNW 12 19 30.32 1027 10 16 N/A
2:52 pm 14:52 Mostly Sunny 40 4.4 27 -2.8 60 60 W 12 19 30.31 1027 10 16 N/A
3:52 pm 15:52 Mostly Sunny 41 5 27 -2.8 57 57 W 10 17 30.30 1026 10 16 N/A
4:52 pm 16:52 Mostly Sunny 42 5.6 25 -3.9 51 51 NW 14 22 30.29 1026 10 16 N/A
5:52 pm 17:52 Mostly Sunny 43 6.1 25 -3.9 49 49 NW 9 15 30.28 1026 10 16 N/A
6:52 pm 18:52 Mostly Sunny 43 6.1 24 -4.4 47 47 NW 9 15 30.29 1026 10 16 N/A
7:52 pm 19:52 Sunny 39 3.9 25 -3.9 57 57 W 5 7 30.29 1026 10 16 N/A
8:52 pm 20:52 Clear 36 2.2 24 -4.4 62 62 N N/A 30.29 1026 10 16 N/A
9:52 pm 21:52 Clear 36 2.2 24 -4.4 62 62 N N/A 30.30 1026 10 16 N/A
10:52 pm 22:52 Clear 31 -0.6 24 -4.4 76 76 N N/A 30.30 1026 10 16 N/A
11:52 pm 23:52 Clear 29 -1.7 26 -3.3 89 89 SW 3 6 30.29 1026 10 16 N/A

Powered by AerisWeather